OBJECT AV, 57217

Orbit data source: Space-Track

You're viewing an Uncataloged Satellite

Recently launched and/or uncataloged satellites may have evolving metadata. Metadata may include but not limited to: Owner, Maufacturer, Bus, Motor, and Mission.

OBJECT AV, 57217 is a satellite in SSO that was launched on Tue, 27 Jun 2023 UTC via a SOYUZ-2-1B launch vehicle from the Vostochny Cosmodrome (VOSTO). Unknown objects in Earth's orbit typically refer to objects detected orbiting the Earth but have not yet been identified or cataloged. These objects could be anything from previously untracked satellites, spent rocket stages, debris from satellite collisions, or even natural meteoroids temporarily captured by Earth's gravity.

Loading next visibility...
Identifier
57217, 2023-091AV
Orbit
SSO
Country
Flag of TBDTBD
Related business
Flag of RUKuzbass State Technical University (KuzGTU) (RU)
Manufacturer
Sputniks
Mission
Operational Amateur Technology
Bus & Motor
CUBESAT 3U, Unknown motor
Mass
3.4 kg wet, 3.4 kg dry
Launch date (UTC)
2023-06-27 (3 years ago)
Launch vehicle
SOYUZ-2-1B
Launch site
Vostochny Cosmodrome (VOSTO)
Object type
Unknown
Shape & HBR
Box, 0.1 m
Radar Cross Section
0.035 m², Medium (>0.1 m² and < 1m²)

Expand to show TLE details & history
Last TLE update: 13 hours ago

TLE from 13 hours ago
0 OBJECT AV
1 57217U 23091AV  26162.93214097  .00011588  00000-0  40382-3 0  9992
2 57217  97.5073 227.3588 0012348 114.2109 246.0423 15.29740183163579
Epoch: 2026-06-11T22:22Z
TLE epoch observation values (Epoch: 2026-06-11T22:22:16.979Z)
Latitude
-0.00005°
Longitude
-8.48079°
Altitude
483.135 km
Speed
7.622 km/s
True Right ascension
15h 09m 26s
True Declination
0° 00' 00"
Sunlit
Object was in full shadow at epoch
Visualization orbit readout
Latitude
Unknown
Longitude
Unknown
Altitude
Unknown
Speed
Unknown
Apparent Right ascension
Unknown
Apparent Declination
Unknown
Sunlit
N/A
Visualization observer readout
Local Sidereal Time
21:38:10
Azimuth
Unknown
Elevation
Unknown
Doppler factor
Unknown
Orbital elements
Apogee altitude
482.006 km
Perigee altitude
465.085 km
Semi-major axis
6,851.683 km
Eccentricity
0.00123
Inclination
97.5073°
RAAN
227.3588°
Arg. of periapsis
114.2109°
True anomaly
245.91307°
Mean anomaly
246.0423°
Eccentric anomaly
245.97768°
Mean motion
3.8269 °/min
Orbital period
94.07 mins
BSTAR
0.00040382
Loading maneuver chart data...
Computing Atmospheric mass density...
Loading historical data...
Loading historical data...
Loading historical data...
Loading historical data...
Loading historical data...
Loading historical data...
Loading historical data...

Documentation

Showing up to 5 results
|